Overview Statistics Trail Chart Weather Telemetry Raw packets
 

This is the latest recevied weather packets stored in our database for station/object KB1JL-13. If no packets are shown the sender has not sent any weather packets the latest 10 day(s).

<< 96 97 98 99 100 101 102 >>
Time Temp. Humidity Pressure Rain* Wind** Luminosity Snow
1787859709 24.44° C 85% 1028.8 hPa 0 mm - 177 W/m² -
1787859409 23.89° C 84% 1028.8 hPa 0 mm - 177 W/m² -
1787859104 23.89° C 84% 1029.1 hPa 0 mm - 170 W/m² -
1787858801 24.44° C 84% 1028.8 hPa 0 mm - 170 W/m² -
1787858497 23.89° C 83% 1029.1 hPa 0 mm - 167 W/m² -
1787858195 23.89° C 83% 1028.8 hPa 0 mm - 154 W/m² -
1787857891 23.89° C 83% 1028.8 hPa 0 mm - 147 W/m² -
1787857588 23.89° C 82% 1028.8 hPa 0 mm - 170 W/m² -
1787857287 23.89° C 82% 1028.8 hPa 0 mm - 161 W/m² -
1787856986 23.89° C 81% 1028.8 hPa 0 mm - 144 W/m² -
1787856675 23.89° C 81% 1028.8 hPa 0 mm - 133 W/m² -
1787856375 23.89° C 79% 1028.8 hPa 0 mm - 116 W/m² -
1787856070 23.89° C 78% 1028.8 hPa 0 mm - 117 W/m² -
1787855770 24.44° C 79% 1028.8 hPa 0 mm - 132 W/m² -
1787855465 24.44° C 78% 1028.4 hPa 0 mm - 158 W/m² -
1787855161 24.44° C 77% 1028.8 hPa 0 mm - 178 W/m² -
1787854855 24.44° C 77% 1028.8 hPa 0 mm - 195 W/m² -
1787854550 24.44° C 77% 1028.8 hPa 0 mm - 198 W/m² -
1787854245 25° C 76% 1028.8 hPa 0 mm - 193 W/m² -
1787853945 25° C 76% 1028.8 hPa 0 mm - 195 W/m² -
1787853639 25° C 78% 1028.8 hPa 0 mm - 202 W/m² -
1787853028 25° C 80% 1028.1 hPa 0 mm - 217 W/m² -
1787852726 25° C 80% 1028.4 hPa 0 mm - 217 W/m² -
1787852421 25° C 80% 1028.8 hPa 0 mm - 217 W/m² -
1787852119 25° C 79% 1028.4 hPa 0 mm - 207 W/m² -

* Rain latest hour (hover to see other rain measurements)
** Current wind speed in m/s (hover to see current wind gust speed)